TimeCDT,TemperatureF,Dew PointF,Humidity,Sea Level PressureIn,VisibilityMPH,Wind Direction,Wind SpeedMPH,Gust SpeedMPH,PrecipitationIn,Events,Conditions,WindDirDegrees,DateUTC
12:15 AM,64.4,60.8,88,29.66,4.0,NNW,4.6,-,N/A,,Overcast,330,2012-10-14 05:15:00
12:35 AM,62.6,59.0,88,29.65,2.5,NNW,6.9,-,N/A,,Overcast,330,2012-10-14 05:35:00
12:55 AM,62.6,59.0,88,29.64,2.0,North,9.2,-,N/A,,Overcast,350,2012-10-14 05:55:00
1:15 AM,62.6,59.0,88,29.65,1.0,North,6.9,-,N/A,,Overcast,10,2012-10-14 06:15:00
1:35 AM,62.6,57.2,82,29.65,1.2,NNE,9.2,-,N/A,,Overcast,30,2012-10-14 06:35:00
1:55 AM,60.8,57.2,88,29.66,0.8,East,5.8,-,N/A,,Overcast,80,2012-10-14 06:55:00
2:15 AM,62.6,57.2,82,29.64,1.0,East,6.9,-,0.05,Rain,Rain,80,2012-10-14 07:15:00
2:35 AM,64.4,60.8,88,29.64,7.0,South,5.8,-,0.07,Rain,Light Rain,170,2012-10-14 07:35:00
2:55 AM,64.4,60.8,88,29.62,10.0,South,13.8,-,0.07,Rain,Light Rain,180,2012-10-14 07:55:00
3:15 AM,64.4,60.8,88,29.62,10.0,South,10.4,-,0.02,Rain,Light Rain,180,2012-10-14 08:15:00
3:35 AM,62.6,59.0,88,29.62,10.0,South,9.2,-,0.03,Rain,Light Rain,180,2012-10-14 08:35:00
3:55 AM,62.6,59.0,88,29.63,10.0,SW,9.2,-,0.07,Rain,Rain,220,2012-10-14 08:55:00
4:15 AM,62.6,57.2,82,29.61,10.0,SSW,11.5,-,0.05,Rain,Rain,200,2012-10-14 09:15:00
4:35 AM,62.6,57.2,82,29.61,10.0,SSW,8.1,-,0.08,Rain,Rain,200,2012-10-14 09:35:00
4:55 AM,60.8,57.2,88,29.58,10.0,SSW,9.2,-,0.12,Rain,Light Rain,200,2012-10-14 09:55:00
5:15 AM,60.8,57.2,88,29.59,10.0,West,8.1,-,0.02,Rain,Rain,280,2012-10-14 10:15:00
5:35 AM,57.2,53.6,88,29.59,10.0,NW,15.0,21.9,0.06,Rain,Rain,320,2012-10-14 10:35:00
5:55 AM,55.4,51.8,88,29.59,10.0,NNW,17.3,-,0.09,Rain,Rain,340,2012-10-14 10:55:00
6:15 AM,53.6,51.8,94,29.59,10.0,North,19.6,-,0.04,Rain,Rain,350,2012-10-14 11:15:00
6:35 AM,53.6,50.0,88,29.59,10.0,North,18.4,-,0.07,Rain,Light Rain,360,2012-10-14 11:35:00
6:55 AM,53.6,48.2,82,29.59,10.0,North,13.8,18.4,0.12,Rain,Rain,360,2012-10-14 11:55:00
7:15 AM,51.8,48.2,88,29.59,10.0,North,15.0,19.6,0.04,Rain,Rain,350,2012-10-14 12:15:00
7:35 AM,51.8,48.2,88,29.59,10.0,North,19.6,26.5,0.13,Rain,Heavy Rain,350,2012-10-14 12:35:00
7:55 AM,51.8,48.2,88,29.59,10.0,NNW,18.4,23.0,0.20,Rain,Rain,340,2012-10-14 12:55:00
8:15 AM,51.8,48.2,88,29.58,10.0,North,19.6,26.5,0.04,Rain,Rain,350,2012-10-14 13:15:00
8:35 AM,51.8,46.4,82,29.59,10.0,NNW,19.6,27.6,0.09,Rain,Rain,340,2012-10-14 13:35:00
8:55 AM,51.8,46.4,82,29.60,10.0,NNW,19.6,27.6,0.12,Rain,Rain,340,2012-10-14 13:55:00
9:15 AM,50.0,46.4,87,29.60,10.0,NNW,20.7,28.8,0.03,Rain,Rain,340,2012-10-14 14:15:00
9:35 AM,50.0,46.4,87,29.60,7.0,North,25.3,33.4,0.05,Rain,Light Rain,350,2012-10-14 14:35:00
9:55 AM,50.0,46.4,87,29.61,4.0,North,24.2,32.2,0.06,Rain,Light Rain,350,2012-10-14 14:55:00
10:15 AM,50.0,46.4,87,29.62,5.0,NNW,20.7,34.5,N/A,,Overcast,340,2012-10-14 15:15:00
10:35 AM,50.0,46.4,87,29.62,5.0,NNW,27.6,33.4,N/A,,Overcast,340,2012-10-14 15:35:00
10:55 AM,50.0,46.4,87,29.64,7.0,NNW,24.2,32.2,N/A,,Overcast,330,2012-10-14 15:55:00
11:15 AM,48.2,46.4,93,29.65,10.0,NNW,27.6,32.2,N/A,,Overcast,340,2012-10-14 16:15:00
11:35 AM,48.2,46.4,93,29.66,10.0,NNW,21.9,33.4,N/A,,Overcast,340,2012-10-14 16:35:00
11:55 AM,48.2,46.4,93,29.67,10.0,NNW,25.3,32.2,N/A,,Overcast,340,2012-10-14 16:55:00
12:15 PM,48.2,46.4,93,29.68,7.0,NNW,23.0,32.2,N/A,,Overcast,340,2012-10-14 17:15:00
12:35 PM,50.0,46.4,87,29.70,10.0,NNW,20.7,31.1,N/A,,Overcast,340,2012-10-14 17:35:00
12:55 PM,50.0,46.4,87,29.70,10.0,NNW,20.7,28.8,N/A,,Overcast,330,2012-10-14 17:55:00
1:15 PM,48.2,46.4,93,29.71,10.0,NW,21.9,27.6,N/A,,Overcast,320,2012-10-14 18:15:00
1:35 PM,48.2,46.4,93,29.71,10.0,NNW,24.2,34.5,N/A,,Overcast,340,2012-10-14 18:35:00
1:55 PM,50.0,46.4,87,29.71,10.0,NNW,23.0,34.5,N/A,,Overcast,340,2012-10-14 18:55:00
2:15 PM,51.8,46.4,82,29.71,10.0,NNW,20.7,31.1,N/A,,Overcast,330,2012-10-14 19:15:00
2:35 PM,53.6,46.4,77,29.72,10.0,NNW,19.6,28.8,N/A,,Overcast,340,2012-10-14 19:35:00
2:55 PM,53.6,46.4,77,29.72,10.0,NNW,23.0,28.8,N/A,,Mostly Cloudy,340,2012-10-14 19:55:00
3:15 PM,53.6,46.4,77,29.73,10.0,NNW,19.6,26.5,N/A,,Mostly Cloudy,340,2012-10-14 20:15:00
3:35 PM,55.4,46.4,72,29.74,10.0,NNW,20.7,26.5,N/A,,Scattered Clouds,340,2012-10-14 20:35:00
3:55 PM,55.4,44.6,67,29.75,10.0,NNW,21.9,26.5,N/A,,Scattered Clouds,330,2012-10-14 20:55:00
4:15 PM,55.4,44.6,67,29.76,10.0,NNW,18.4,25.3,N/A,,Scattered Clouds,330,2012-10-14 21:15:00
4:35 PM,55.4,44.6,67,29.77,10.0,NNW,15.0,21.9,N/A,,Clear,330,2012-10-14 21:35:00
4:55 PM,55.4,42.8,63,29.78,10.0,NNW,18.4,-,N/A,,Clear,330,2012-10-14 21:55:00
5:15 PM,55.4,42.8,63,29.79,10.0,NNW,12.7,20.7,N/A,,Clear,330,2012-10-14 22:15:00
5:35 PM,55.4,42.8,63,29.80,10.0,NNW,13.8,18.4,N/A,,Clear,330,2012-10-14 22:35:00
5:55 PM,55.4,42.8,63,29.80,10.0,NW,10.4,-,N/A,,Clear,320,2012-10-14 22:55:00
6:15 PM,53.6,42.8,67,29.81,10.0,NW,8.1,-,N/A,,Clear,310,2012-10-14 23:15:00
6:35 PM,53.6,42.8,67,29.82,10.0,NW,8.1,-,N/A,,Clear,310,2012-10-14 23:35:00
6:55 PM,51.8,42.8,71,29.82,10.0,WNW,9.2,-,N/A,,Clear,300,2012-10-14 23:55:00
7:15 PM,51.8,42.8,71,29.83,10.0,NW,9.2,-,N/A,,Clear,310,2012-10-15 00:15:00
7:35 PM,51.8,41.0,67,29.84,10.0,NW,9.2,-,N/A,,Clear,310,2012-10-15 00:35:00
7:55 PM,51.8,41.0,67,29.85,10.0,NW,10.4,-,N/A,,Clear,310,2012-10-15 00:55:00
8:15 PM,50.0,41.0,71,29.85,10.0,NW,5.8,-,N/A,,Clear,320,2012-10-15 01:15:00
8:35 PM,48.2,39.2,71,29.85,10.0,NW,4.6,-,N/A,,Clear,310,2012-10-15 01:35:00
8:55 PM,46.4,39.2,76,29.86,10.0,WNW,5.8,-,N/A,,Clear,290,2012-10-15 01:55:00
9:15 PM,46.4,39.2,76,29.86,10.0,West,6.9,-,N/A,,Clear,280,2012-10-15 02:15:00
9:35 PM,46.4,39.2,76,29.87,10.0,West,5.8,-,N/A,,Scattered Clouds,280,2012-10-15 02:35:00
9:55 PM,44.6,39.2,81,29.88,10.0,WNW,5.8,-,N/A,,Mostly Cloudy,290,2012-10-15 02:55:00
10:15 PM,44.6,39.2,81,29.88,10.0,West,6.9,-,N/A,,Scattered Clouds,280,2012-10-15 03:15:00
10:35 PM,44.6,37.4,76,29.88,10.0,West,6.9,-,N/A,,Mostly Cloudy,270,2012-10-15 03:35:00
10:55 PM,46.4,39.2,76,29.89,10.0,West,5.8,-,N/A,,Overcast,280,2012-10-15 03:55:00
11:15 PM,46.4,39.2,76,29.89,10.0,West,8.1,-,N/A,,Overcast,270,2012-10-15 04:15:00
11:35 PM,46.4,41.0,81,29.89,10.0,West,6.9,-,N/A,,Overcast,280,2012-10-15 04:35:00
11:55 PM,48.2,41.0,76,29.89,10.0,West,5.8,-,N/A,,Overcast,280,2012-10-15 04:55:00